| time (UTC) | temp C | wind direction | speed KPH | gust KPH | rain 1hr cm | rain 24hr cm | rain mn cm | humidity % | barometer mb |
| 20260505153016 | 8 | 338 | 12.9 | 27.4 | 0.00 | 0.00 | 0.00 | 53 | 1012.1 |
| 20260505123016 | 3 | 270 | 1.6 | 6.4 | 0.00 | 0.00 | 0.00 | 76 | 1010.3 |
| 20260505120016 | 1 | 270 | 1.6 | 4.8 | 0.00 | 0.00 | 0.00 | 78 | 1009.6 |
| 20260505113016 | 1 | 270 | 1.6 | 4.8 | 0.00 | 0.00 | 0.00 | 79 | 1009.1 |
| 20260505100016 | 2 | 293 | 6.4 | 11.3 | 0.00 | 0.00 | 0.00 | 74 | 1008.5 |
| 20260505093017 | 1 | 293 | 1.6 | 9.7 | 0.00 | 0.00 | 0.00 | 76 | 1008.1 |
| 20260505090016 | 2 | 0.0 | 3.2 | 0.00 | 0.00 | 0.00 | 73 | 1007.9 | |
| 20260505083016 | 2 | 0.0 | 4.8 | 0.00 | 0.00 | 0.00 | 71 | 1007.8 | |
| 20260505073018 | 3 | 293 | 11.3 | 14.5 | 0.00 | 0.00 | 0.00 | 68 | 1007.4 |
| 20260505070017 | 3 | 293 | 8.0 | 14.5 | 0.00 | 0.00 | 0.00 | 66 | 1007.3 |
| 20260505063018 | 4 | 293 | 4.8 | 11.3 | 0.00 | 0.00 | 0.00 | 65 | 1007.6 |
| 20260505060018 | 4 | 293 | 4.8 | 12.9 | 0.00 | 0.00 | 0.00 | 64 | 1007.6 |
| 20260505053018 | 4 | 0.0 | 6.4 | 0.00 | 0.00 | 0.00 | 64 | 1007.4 | |
| 20260505040016 | 6 | 293 | 1.6 | 11.3 | 0.00 | 0.00 | 0.00 | 57 | 1007.2 |
| 20260505033016 | 7 | 293 | 3.2 | 8.0 | 0.00 | 0.00 | 0.00 | 53 | 1007.3 |
| 20260505030036 | 7 | 315 | 9.7 | 16.1 | 0.00 | 0.00 | 0.00 | 50 | 1007.4 |
| 20260505023016 | 8 | 338 | 20.9 | 38.6 | 0.00 | 0.00 | 0.00 | 46 | 1007.1 |
| 20260505020016 | 9 | 338 | 29.0 | 45.1 | 0.00 | 0.00 | 0.00 | 44 | 1006.6 |
| 20260505013017 | 10 | 338 | 32.2 | 46.7 | 0.00 | 0.00 | 0.00 | 43 | 1006.2 |
| 20260505010035 | 11 | 338 | 37.0 | 54.7 | 0.00 | 0.00 | 0.00 | 42 | 1005.7 |
| 20260505003037 | 11 | 315 | 35.4 | 49.9 | 0.00 | 0.00 | 0.00 | 41 | 1005.2 |
| 20260505000016 | 12 | 315 | 35.4 | 49.9 | 0.00 | 0.00 | 0.00 | 40 | 1005.0 |
| 20260504233017 | 13 | 315 | 37.0 | 54.7 | 0.00 | 0.00 | 0.00 | 40 | 1004.7 |
| 20260504230018 | 13 | 315 | 40.2 | 56.3 | 0.00 | 0.00 | 0.00 | 42 | 1004.7 |
| 20260504223018 | 14 | 315 | 41.8 | 59.5 | 0.00 | 0.00 | 0.00 | 41 | 1004.2 |
| 20260504220018 | 15 | 315 | 38.6 | 59.5 | 0.00 | 0.00 | 0.00 | 39 | 1003.4 |
| 20260504213037 | 15 | 315 | 38.6 | 56.3 | 0.00 | 0.00 | 0.00 | 39 | 1003.1 |
| 20260504210038 | 15 | 315 | 37.0 | 56.3 | 0.00 | 0.00 | 0.00 | 39 | 1002.8 |
| 20260504203018 | 15 | 315 | 40.2 | 62.8 | 0.00 | 0.00 | 0.00 | 37 | 1003.0 |
| 20260504200038 | 16 | 315 | 38.6 | 59.5 | 0.00 | 0.00 | 0.00 | 37 | 1003.0 |
| 20260504193017 | 16 | 315 | 40.2 | 57.9 | 0.00 | 0.00 | 0.00 | 36 | 1002.5 |
| 20260504190057 | 16 | 315 | 41.8 | 59.5 | 0.00 | 0.00 | 0.00 | 30 | 1002.0 |
| 20260504183037 | 16 | 315 | 38.6 | 57.9 | 0.00 | 0.00 | 0.00 | 34 | 1001.7 |
| 20260504180017 | 16 | 315 | 38.6 | 54.7 | 0.00 | 0.00 | 0.00 | 38 | 1001.5 |
| 20260504173016 | 16 | 315 | 35.4 | 53.1 | 0.00 | 0.00 | 0.00 | 40 | 1001.2 |